Skip Page Navigation
NASA JPL Caltech
NASA Logo - Jet Propulsion Laboratory + View the NASA Portal
+ Center for Near-Earth Object Studies
JPL Home Earth Solar System Stars & Galaxies Technology
JPL Solar System Dynamics
BODIES ORBITS EPHEMERIDES TOOLS PHYSICAL DATA DISCOVERY FAQ SITE MAP
JPL Small-Body Database Browser
Search: [ help ]  
437910 (2002 AU31)
Classification: Main-belt Asteroid          SPK-ID: 2437910
Ephemeris | Orbit Diagram | Orbital Elements | Mission Design | Physical Parameters | Discovery Circumstances | Close-Approach Data ]

[ show orbit diagram ]
Orbital Elements at Epoch 2459000.5 (2020-May-31.0) TDB
Reference: JPL 23 (heliocentric ecliptic J2000)
 Element Value Uncertainty (1-sigma)   Units 
e .2480084871102944 9.2446e-08  
a 2.646608410454504 1.8268e-08 au
q 1.990227062604301 2.4688e-07 au
i 35.03784988551839 1.2993e-05 deg
node 126.4988254030749 8.4034e-06 deg
peri 333.3811476014353 2.1486e-05 deg
M 107.1858952505283 1.6561e-05 deg
tp 2458532.260445197628
(2019-Feb-17.76044520)
7.0593e-05 TDB
period 1572.653186642325
4.31
1.6283e-05
4.458e-08
d
yr
n .2289125174308862 2.3701e-09 deg/d
Q 3.302989758304706 2.2799e-08 au
  Orbit Determination Parameters
   # obs. used (total)      198  
   data-arc span      6702 days (18.35 yr)  
   first obs. used      2001-12-23  
   last obs. used      2020-04-29  
   planetary ephem.      DE431  
   SB-pert. ephem.      SB431-N16  
   condition code      0  
   norm. resid. RMS      .48019  
   source      ORB  
   producer      Otto Matic  
   solution date      2020-May-22 03:44:39  

Additional Information
 Earth MOID = 1.03264 au 
 Jupiter MOID = 1.89568 au 
 T_jup = 3.097 
[ show covariance matrix ]

Ephemeris | Orbit Diagram | Orbital Elements | Mission Design | Physical Parameters | Discovery Circumstances | Close-Approach Data ]

Physical Parameter Table
Parameter Symbol Value Units Sigma Reference Notes
absolute magnitude H 16.2   n/a MPO339607  

437910 (2002 AU31)          Discovered 2001-Dec-23 by LONEOS at Anderson Mesa
Reference: Last Updated: 2015-07-06

[ hide close-approach data ]
Close-Approach Data   ...sorted by Date/Time (TDB)
Date/Time (TDB) Time Uncertainty
(days_HH:MM)
Body Nominal Distance (au) Minimum Distance (au) Maximum Distance (au) V-relative (km/s) V-infinity (km/s) JD (TDB) Time Uncertainty (minutes) Semi-major axis (km) Semi-minor axis (km) range-LOV angle (deg) N-sigma BP Orbit Ref. Reference Modified
1913-Nov-03 18:23 00:02 Jupiter 1.97764856288386 1.97764652067276 1.97765060512126 8.29885262922563 8.24708187024947 2420075.266261193 2.21783069698446 444.232856642594 55.9389088145824 -78.9176850525249 2188417.98867101 T 23 CATAB v2.0f-lin.ifort 2020-May-22 03:44:53 2020-May-22 03:44
1961-Apr-13 03:03 00:01 Jupiter 1.97949629122183 1.97949495656344 1.97949762588517 8.30742261444987 8.25575402269006 2437402.626742731 1.24418205103879 274.317035013975 53.5340566643189 -81.7074616761734 2184286.43720816 T 23 CATAB v2.0f-lin.ifort 2020-May-22 03:44:53 2020-May-22 03:44
2008-Sep-17 05:10 < 00:01 Jupiter 1.98937202419082 1.98937114398641 1.98937290439523 8.31377444178411 8.26240266745997 2454726.715252290 0.396381554718985 155.3942890921 42.9288623439665 87.9413260040343 2180530.81957031 T 23 CATAB v2.0f-lin.ifort 2020-May-22 03:44:53 2020-May-22 03:44
Ephemeris | Orbit Diagram | Orbital Elements | Mission Design | Physical Parameters | Discovery Circumstances | Close-Approach Data ]
ABOUT SSD CREDITS/AWARDS PRIVACY/COPYRIGHT GLOSSARY LINKS
FirstGov 2020-Oct-27 02:55 UT
(server date/time)  
NASA Home Page
Site Manager:   Ryan S. Park
Webmaster  Alan B. Chamberlin